Location: Newark
(12.6500°N, 8.0000°W)
Time: 12:12:37
(UTC+00:00)

N. Korean satellite - Pass Details

Date: 25 October 2019
Orbit: 456 x 506 km, 97.2° (Epoch: 17 November)

Event Time Altitude Azimuth Distance (km) Brightness Sun altitude
Rises 05:56:08 0° 17° (NNE) 2,583 10.3 -7.4°
Reaches altitude 10° 05:58:14 10° 22° (NNE) 1,704 9.5 -6.9°
Maximum altitude 06:01:50 54° 100° (E) 615 7.6 -6.0°
Drops below altitude 10° 06:05:27 10° 178° (S) 1,712 9.5 -5.2°
Sets 06:07:34 0° 183° (S) 2,596 10.4 -4.7°
